TimeMST,TemperatureF,Dew PointF,Humidity,Sea Level PressureIn,VisibilityMPH,Wind Direction,Wind SpeedMPH,Gust SpeedMPH,PrecipitationIn,Events,Conditions,WindDirDegrees,DateUTC
12:53 AM,36.0,12.0,37,29.90,10.0,WNW,6.9,-,N/A,,Clear,300,2012-12-13 07:53:00
1:53 AM,33.1,12.0,42,29.91,10.0,WNW,4.6,-,N/A,,Clear,290,2012-12-13 08:53:00
2:53 AM,33.1,10.9,40,29.93,10.0,West,4.6,-,N/A,,Clear,270,2012-12-13 09:53:00
3:53 AM,33.1,12.0,42,29.94,10.0,NW,4.6,-,N/A,,Clear,310,2012-12-13 10:53:00
4:53 AM,30.0,10.9,45,29.97,10.0,Calm,Calm,-,N/A,,Clear,0,2012-12-13 11:53:00
5:53 AM,28.9,12.0,49,30.02,10.0,West,3.5,-,N/A,,Clear,260,2012-12-13 12:53:00
6:53 AM,26.1,10.9,53,30.04,10.0,WSW,4.6,-,N/A,,Clear,240,2012-12-13 13:53:00
7:53 AM,30.9,12.9,47,30.06,10.0,WSW,4.6,-,N/A,,Clear,250,2012-12-13 14:53:00
8:53 AM,42.1,16.0,35,30.04,10.0,Calm,Calm,-,N/A,,Clear,0,2012-12-13 15:53:00
9:53 AM,50.0,15.1,25,30.05,10.0,ESE,8.1,-,N/A,,Clear,120,2012-12-13 16:53:00
10:53 AM,54.0,15.1,22,30.04,10.0,East,11.5,-,N/A,,Clear,100,2012-12-13 17:53:00
11:53 AM,55.0,15.1,21,30.03,10.0,East,11.5,-,N/A,,Clear,100,2012-12-13 18:53:00
12:53 PM,55.9,15.1,20,29.99,10.0,ESE,15.0,-,N/A,,Clear,110,2012-12-13 19:53:00
1:53 PM,57.9,15.1,19,29.97,10.0,ESE,11.5,-,N/A,,Clear,110,2012-12-13 20:53:00
2:53 PM,57.0,15.1,19,29.97,10.0,SE,13.8,-,N/A,,Clear,130,2012-12-13 21:53:00
3:53 PM,51.8,15.8,24,29.97,10.0,ESE,10.4,-,N/A,,Clear,120,2012-12-13 22:53:00
5:53 PM,33.8,12.2,41,29.98,10.0,SE,8.1,-,N/A,,Clear,130,2012-12-14 00:53:00
6:53 PM,34.0,12.9,42,30.05,10.0,SE,5.8,-,N/A,,Clear,140,2012-12-14 01:53:00
7:53 PM,30.9,12.9,47,30.02,10.0,SSE,11.5,-,N/A,,Clear,160,2012-12-14 02:53:00
8:53 PM,23.0,10.0,58,30.00,10.0,East,4.6,-,N/A,,Clear,100,2012-12-14 03:53:00
9:53 PM,19.9,8.1,60,29.99,9.0,Calm,Calm,-,0.00,Snow,Light Snow,0,2012-12-14 04:53:00
10:53 PM,21.2,8.6,58,29.94,9.0,Calm,Calm,-,N/A,Snow,Light Snow,0,2012-12-14 05:53:00
11:53 PM,16.0,7.0,68,29.94,10.0,NW,5.8,-,0.00,,Clear,310,2012-12-14 06:53:00